Year,Month,Day,Hour,Minute,Value (Times are PST for temperature in C)
2011,08,11,00,00,13.30
2011,08,11,00,01,13.20
2011,08,11,00,02,13.20
2011,08,11,00,03,13.20
2011,08,11,00,04,13.20
2011,08,11,00,05,13.10
2011,08,11,00,06,13.10
2011,08,11,00,07,13.10
2011,08,11,00,08,13.00
2011,08,11,00,09,13.00
2011,08,11,00,10,13.00
2011,08,11,00,11,13.00
2011,08,11,00,12,12.90
2011,08,11,00,13,12.90
2011,08,11,00,14,12.90
2011,08,11,00,15,12.90
2011,08,11,00,16,12.90
2011,08,11,00,17,12.90
2011,08,11,00,18,12.90
2011,08,11,00,19,12.80
2011,08,11,00,20,12.80
2011,08,11,00,21,12.80
2011,08,11,00,22,12.80
2011,08,11,00,23,12.80
2011,08,11,00,24,12.80
2011,08,11,00,25,12.80
2011,08,11,00,26,12.80
2011,08,11,00,27,12.80
2011,08,11,00,28,12.80
2011,08,11,00,29,12.80
2011,08,11,00,30,12.80
2011,08,11,00,31,12.80
2011,08,11,00,32,12.80
2011,08,11,00,33,12.80
2011,08,11,00,34,12.80
2011,08,11,00,35,12.80
2011,08,11,00,36,12.80
2011,08,11,00,37,12.80
2011,08,11,00,38,12.80
2011,08,11,00,39,12.80
2011,08,11,00,40,12.80
2011,08,11,00,41,12.70
2011,08,11,00,42,12.70
2011,08,11,00,43,12.70
2011,08,11,00,44,12.70
2011,08,11,00,45,12.70
2011,08,11,00,46,12.70
2011,08,11,00,47,12.70
2011,08,11,00,48,12.70
2011,08,11,00,49,12.70
2011,08,11,00,50,12.70
2011,08,11,00,51,12.60
2011,08,11,00,52,12.60
2011,08,11,00,53,12.60
2011,08,11,00,54,12.60
2011,08,11,00,55,12.60
2011,08,11,00,56,12.60
2011,08,11,00,57,12.50
2011,08,11,00,58,12.50
2011,08,11,00,59,12.50
2011,08,11,01,00,12.50
2011,08,11,01,01,12.50
2011,08,11,01,02,12.40
2011,08,11,01,03,12.40
2011,08,11,01,04,12.40
2011,08,11,01,05,12.40
2011,08,11,01,06,12.40
2011,08,11,01,07,12.40
2011,08,11,01,08,12.40
2011,08,11,01,09,12.30
2011,08,11,01,10,12.30
2011,08,11,01,11,12.30
2011,08,11,01,12,12.30
2011,08,11,01,13,12.30
2011,08,11,01,14,12.30
2011,08,11,01,15,12.30
2011,08,11,01,16,12.30
2011,08,11,01,17,12.20
2011,08,11,01,18,12.20
2011,08,11,01,19,12.20
2011,08,11,01,20,12.20
2011,08,11,01,21,12.20
2011,08,11,01,22,12.20
2011,08,11,01,23,12.20
2011,08,11,01,24,12.20
2011,08,11,01,25,12.20
2011,08,11,01,26,12.20
2011,08,11,01,27,12.20
2011,08,11,01,28,12.10
2011,08,11,01,29,12.10
2011,08,11,01,30,12.10
2011,08,11,01,31,12.10
2011,08,11,01,32,12.10
2011,08,11,01,33,12.10
2011,08,11,01,34,12.10
2011,08,11,01,35,12.10
2011,08,11,01,36,12.10
2011,08,11,01,37,12.00
2011,08,11,01,38,12.00
2011,08,11,01,39,12.00
2011,08,11,01,40,12.00
2011,08,11,01,41,11.90
2011,08,11,01,42,11.90
2011,08,11,01,43,11.90
2011,08,11,01,44,11.90
2011,08,11,01,45,11.90
2011,08,11,01,46,11.90
2011,08,11,01,47,11.90
2011,08,11,01,48,11.80
2011,08,11,01,49,11.80
2011,08,11,01,50,11.80
2011,08,11,01,51,11.80
2011,08,11,01,52,11.80
2011,08,11,01,53,11.80
2011,08,11,01,54,11.80
2011,08,11,01,55,11.80
2011,08,11,01,56,11.80
2011,08,11,01,57,11.80
2011,08,11,01,58,11.80
2011,08,11,01,59,11.70
2011,08,11,02,00,11.80
2011,08,11,02,01,11.70
2011,08,11,02,02,11.70
2011,08,11,02,03,11.70
2011,08,11,02,04,11.70
2011,08,11,02,05,11.70
2011,08,11,02,06,11.70
2011,08,11,02,07,11.70
2011,08,11,02,08,11.70
2011,08,11,02,09,11.70
2011,08,11,02,10,11.70
2011,08,11,02,11,11.70
2011,08,11,02,12,11.70
2011,08,11,02,13,11.70
2011,08,11,02,14,11.70
2011,08,11,02,15,11.70
2011,08,11,02,16,11.60
2011,08,11,02,17,11.60
2011,08,11,02,18,11.60
2011,08,11,02,19,11.60
2011,08,11,02,20,11.60
2011,08,11,02,21,11.60
2011,08,11,02,22,11.60
2011,08,11,02,23,11.50
2011,08,11,02,24,11.50
2011,08,11,02,25,11.50
2011,08,11,02,26,11.50
2011,08,11,02,27,11.40
2011,08,11,02,28,11.40
2011,08,11,02,29,11.40
2011,08,11,02,30,11.40
2011,08,11,02,31,11.40
2011,08,11,02,32,11.30
2011,08,11,02,33,11.30
2011,08,11,02,34,11.30
2011,08,11,02,35,11.30
2011,08,11,02,36,11.30
2011,08,11,02,37,11.30
2011,08,11,02,38,11.30
2011,08,11,02,39,11.30
2011,08,11,02,40,11.20
2011,08,11,02,41,11.20
2011,08,11,02,42,11.20
2011,08,11,02,43,11.20
2011,08,11,02,44,11.20
2011,08,11,02,45,11.20
2011,08,11,02,46,11.10
2011,08,11,02,47,11.10
2011,08,11,02,48,11.10
2011,08,11,02,49,11.10
2011,08,11,02,50,11.10
2011,08,11,02,51,11.10
2011,08,11,02,52,11.10
2011,08,11,02,53,11.00
2011,08,11,02,54,11.00
2011,08,11,02,55,11.00
2011,08,11,02,56,11.00
2011,08,11,02,57,11.00
2011,08,11,02,58,11.00
2011,08,11,02,59,11.00
2011,08,11,03,00,10.90
2011,08,11,03,01,10.90
2011,08,11,03,02,10.90
2011,08,11,03,03,10.90
2011,08,11,03,04,10.90
2011,08,11,03,05,10.90
2011,08,11,03,06,10.90
2011,08,11,03,07,10.90
2011,08,11,03,08,10.90
2011,08,11,03,09,10.90
2011,08,11,03,10,10.80
2011,08,11,03,11,10.80
2011,08,11,03,12,10.80
2011,08,11,03,13,10.80
2011,08,11,03,14,10.80
2011,08,11,03,15,10.80
2011,08,11,03,16,10.80
2011,08,11,03,17,10.80
2011,08,11,03,18,10.80
2011,08,11,03,19,10.80
2011,08,11,03,20,10.80
2011,08,11,03,21,10.80
2011,08,11,03,22,10.80
2011,08,11,03,23,10.80
2011,08,11,03,24,10.80
2011,08,11,03,25,10.80
2011,08,11,03,26,10.80
2011,08,11,03,27,10.80
2011,08,11,03,28,10.80
2011,08,11,03,29,10.80
2011,08,11,03,30,10.80
2011,08,11,03,31,10.80
2011,08,11,03,32,10.80
2011,08,11,03,33,10.80
2011,08,11,03,34,10.80
2011,08,11,03,35,10.80
2011,08,11,03,36,10.80
2011,08,11,03,37,10.80
2011,08,11,03,38,10.80
2011,08,11,03,39,10.80
2011,08,11,03,40,10.80
2011,08,11,03,41,10.80
2011,08,11,03,42,10.80
2011,08,11,03,43,10.80
2011,08,11,03,44,10.80
2011,08,11,03,45,10.80
2011,08,11,03,46,10.80
2011,08,11,03,47,10.70
2011,08,11,03,48,10.70
2011,08,11,03,49,10.70
2011,08,11,03,50,10.70
2011,08,11,03,51,10.70
2011,08,11,03,52,10.70
2011,08,11,03,53,10.70
2011,08,11,03,54,10.70
2011,08,11,03,55,10.70
2011,08,11,03,56,10.70
2011,08,11,03,57,10.70
2011,08,11,03,58,10.70
2011,08,11,03,59,10.70
2011,08,11,04,00,10.70
2011,08,11,04,01,10.70
2011,08,11,04,02,10.60
2011,08,11,04,03,10.60
2011,08,11,04,04,10.60
2011,08,11,04,05,10.60
2011,08,11,04,06,10.60
2011,08,11,04,07,10.60
2011,08,11,04,08,10.70
2011,08,11,04,09,10.70
2011,08,11,04,10,10.70
2011,08,11,04,11,10.70
2011,08,11,04,12,10.70
2011,08,11,04,13,10.70
2011,08,11,04,14,10.70
2011,08,11,04,15,10.70
2011,08,11,04,16,10.70
2011,08,11,04,17,10.70
2011,08,11,04,18,10.70
2011,08,11,04,19,10.70
2011,08,11,04,20,10.70
2011,08,11,04,21,10.70
2011,08,11,04,22,10.70
2011,08,11,04,23,10.70
2011,08,11,04,24,10.70
2011,08,11,04,25,10.70
2011,08,11,04,26,10.70
2011,08,11,04,27,10.70
2011,08,11,04,28,10.70
2011,08,11,04,29,10.70
2011,08,11,04,30,10.70
2011,08,11,04,31,10.70
2011,08,11,04,32,10.70
2011,08,11,04,33,10.70
2011,08,11,04,34,10.70
2011,08,11,04,35,10.70
2011,08,11,04,36,10.70
2011,08,11,04,37,10.70
2011,08,11,04,38,10.70
2011,08,11,04,39,10.70
2011,08,11,04,40,10.70
2011,08,11,04,41,10.70
2011,08,11,04,42,10.70
2011,08,11,04,43,10.70
2011,08,11,04,44,10.80
2011,08,11,04,45,10.70
2011,08,11,04,46,10.70
2011,08,11,04,47,10.70
2011,08,11,04,48,10.70
2011,08,11,04,49,10.70
2011,08,11,04,50,10.70
2011,08,11,04,51,10.70
2011,08,11,04,52,10.70
2011,08,11,04,53,10.70
2011,08,11,04,54,10.70
2011,08,11,04,55,10.70
2011,08,11,04,56,10.70
2011,08,11,04,57,10.70
2011,08,11,04,58,10.70
2011,08,11,04,59,10.70
2011,08,11,05,00,10.70
2011,08,11,05,01,10.70
2011,08,11,05,02,10.70
2011,08,11,05,03,10.70
2011,08,11,05,04,10.70
2011,08,11,05,05,10.70
2011,08,11,05,06,10.60
2011,08,11,05,07,10.60
2011,08,11,05,08,10.60
2011,08,11,05,09,10.60
2011,08,11,05,10,10.60
2011,08,11,05,11,10.60
2011,08,11,05,12,10.60
2011,08,11,05,13,10.60
2011,08,11,05,14,10.60
2011,08,11,05,15,10.60
2011,08,11,05,16,10.60
2011,08,11,05,17,10.60
2011,08,11,05,18,10.60
2011,08,11,05,19,10.60
2011,08,11,05,20,10.60
2011,08,11,05,21,10.60
2011,08,11,05,22,10.60
2011,08,11,05,23,10.60
2011,08,11,05,24,10.60
2011,08,11,05,25,10.60
2011,08,11,05,26,10.60
2011,08,11,05,27,10.60
2011,08,11,05,28,10.60
2011,08,11,05,29,10.60
2011,08,11,05,30,10.60
2011,08,11,05,31,10.60
2011,08,11,05,32,10.60
2011,08,11,05,33,10.60
2011,08,11,05,34,10.60
2011,08,11,05,35,10.60
2011,08,11,05,36,10.60
2011,08,11,05,37,10.60
2011,08,11,05,38,10.60
2011,08,11,05,39,10.60
2011,08,11,05,40,10.60
2011,08,11,05,41,10.60
2011,08,11,05,42,10.60
2011,08,11,05,43,10.60
2011,08,11,05,44,10.60
2011,08,11,05,45,10.60
2011,08,11,05,46,10.60
2011,08,11,05,47,10.60
2011,08,11,05,48,10.70
2011,08,11,05,49,10.70
2011,08,11,05,50,10.70
2011,08,11,05,51,10.70
2011,08,11,05,52,10.70
2011,08,11,05,53,10.70
2011,08,11,05,54,10.70
2011,08,11,05,55,10.70
2011,08,11,05,56,10.70
2011,08,11,05,57,10.70
2011,08,11,05,58,10.70
2011,08,11,05,59,10.70
2011,08,11,06,00,10.70
2011,08,11,06,01,10.70
2011,08,11,06,02,10.70
2011,08,11,06,03,10.70
2011,08,11,06,04,10.70
2011,08,11,06,05,10.70
2011,08,11,06,06,10.70
2011,08,11,06,07,10.70
2011,08,11,06,08,10.70
2011,08,11,06,09,10.70
2011,08,11,06,10,10.70
2011,08,11,06,11,10.70
2011,08,11,06,12,10.70
2011,08,11,06,13,10.70
2011,08,11,06,14,10.70
2011,08,11,06,15,10.70
2011,08,11,06,16,10.80
2011,08,11,06,17,10.80
2011,08,11,06,18,10.80
2011,08,11,06,19,10.80
2011,08,11,06,20,10.80
2011,08,11,06,21,10.80
2011,08,11,06,22,10.90
2011,08,11,06,23,10.90
2011,08,11,06,24,11.00
2011,08,11,06,25,11.00
2011,08,11,06,26,11.00
2011,08,11,06,27,11.00
2011,08,11,06,28,11.10
2011,08,11,06,29,11.10
2011,08,11,06,30,11.10
2011,08,11,06,31,11.20
2011,08,11,06,32,11.20
2011,08,11,06,33,11.20
2011,08,11,06,34,11.20
2011,08,11,06,35,11.20
2011,08,11,06,36,11.20
2011,08,11,06,37,11.20
2011,08,11,06,38,11.20
2011,08,11,06,39,11.30
2011,08,11,06,40,11.30
2011,08,11,06,41,11.30
2011,08,11,06,42,11.30
2011,08,11,06,43,11.30
2011,08,11,06,44,11.30
2011,08,11,06,45,11.30
2011,08,11,06,46,11.30
2011,08,11,06,47,11.30
2011,08,11,06,48,11.40
2011,08,11,06,49,11.40
2011,08,11,06,50,11.40
2011,08,11,06,51,11.40
2011,08,11,06,52,11.40
2011,08,11,06,53,11.50
2011,08,11,06,54,11.50
2011,08,11,06,55,11.50
2011,08,11,06,56,11.60
2011,08,11,06,57,11.60
2011,08,11,06,58,11.60
2011,08,11,06,59,11.60
2011,08,11,07,00,11.60
2011,08,11,07,01,11.60
2011,08,11,07,02,11.60
2011,08,11,07,03,11.60
2011,08,11,07,04,11.70
2011,08,11,07,05,11.70
2011,08,11,07,06,11.70
2011,08,11,07,07,11.70
2011,08,11,07,08,11.70
2011,08,11,07,09,11.70
2011,08,11,07,10,11.70
2011,08,11,07,11,11.70
2011,08,11,07,12,11.70
2011,08,11,07,13,11.70
2011,08,11,07,14,11.70
2011,08,11,07,15,11.70
2011,08,11,07,16,11.70
2011,08,11,07,17,11.70
2011,08,11,07,18,11.70
2011,08,11,07,19,11.80
2011,08,11,07,20,11.80
2011,08,11,07,21,11.80
2011,08,11,07,22,11.80
2011,08,11,07,23,11.80
2011,08,11,07,24,11.80
2011,08,11,07,25,11.80
2011,08,11,07,26,11.90
2011,08,11,07,27,11.90
2011,08,11,07,28,11.90
2011,08,11,07,29,11.90
2011,08,11,07,30,11.90
2011,08,11,07,31,11.90
2011,08,11,07,32,11.90
2011,08,11,07,33,12.00
2011,08,11,07,34,12.00
2011,08,11,07,35,12.00
2011,08,11,07,36,12.00
2011,08,11,07,37,12.00
2011,08,11,07,38,12.00
2011,08,11,07,39,12.00
2011,08,11,07,40,12.00
2011,08,11,07,41,12.00
2011,08,11,07,42,12.00
2011,08,11,07,43,12.00
2011,08,11,07,44,12.00
2011,08,11,07,45,12.00
2011,08,11,07,46,12.00
2011,08,11,07,47,12.00
2011,08,11,07,48,12.00
2011,08,11,07,49,12.00
2011,08,11,07,50,12.00
2011,08,11,07,51,12.00
2011,08,11,07,52,12.00
2011,08,11,07,53,12.00
2011,08,11,07,54,12.00
2011,08,11,07,55,12.00
2011,08,11,07,56,12.00
2011,08,11,07,57,12.00
2011,08,11,07,58,12.00
2011,08,11,07,59,12.00
2011,08,11,08,00,12.00
2011,08,11,08,01,12.10
2011,08,11,08,02,12.10
2011,08,11,08,03,12.10
2011,08,11,08,04,12.10
2011,08,11,08,05,12.10
2011,08,11,08,06,12.10
2011,08,11,08,07,12.10
2011,08,11,08,08,12.10
2011,08,11,08,09,12.10
2011,08,11,08,10,12.10
2011,08,11,08,11,12.10
2011,08,11,08,12,12.10
2011,08,11,08,13,12.20
2011,08,11,08,14,12.20
2011,08,11,08,15,12.20
2011,08,11,08,16,12.20
2011,08,11,08,17,12.20
2011,08,11,08,18,12.20
2011,08,11,08,19,12.20
2011,08,11,08,20,12.20
2011,08,11,08,21,12.20
2011,08,11,08,22,12.30
2011,08,11,08,23,12.30
2011,08,11,08,24,12.30
2011,08,11,08,25,12.30
2011,08,11,08,26,12.30
2011,08,11,08,27,12.30
2011,08,11,08,28,12.30
2011,08,11,08,29,12.40
2011,08,11,08,30,12.40
2011,08,11,08,31,12.40
2011,08,11,08,32,12.40
2011,08,11,08,33,12.50
2011,08,11,08,34,12.50
2011,08,11,08,35,12.50
2011,08,11,08,36,12.60
2011,08,11,08,37,12.60
2011,08,11,08,38,12.60
2011,08,11,08,39,12.70
2011,08,11,08,40,12.70
2011,08,11,08,41,12.70
2011,08,11,08,42,12.80
2011,08,11,08,43,12.80
2011,08,11,08,44,12.80
2011,08,11,08,45,12.90
2011,08,11,08,46,12.90
2011,08,11,08,47,13.00
2011,08,11,08,48,13.10
2011,08,11,08,49,13.10
2011,08,11,08,50,13.20
2011,08,11,08,51,13.20
2011,08,11,08,52,13.30
2011,08,11,08,53,13.30
2011,08,11,08,54,13.40
2011,08,11,08,55,13.40
2011,08,11,08,56,13.50
2011,08,11,08,57,13.50
2011,08,11,08,58,13.60
2011,08,11,08,59,13.60
2011,08,11,09,00,13.70
2011,08,11,09,01,13.80
2011,08,11,09,02,13.80
2011,08,11,09,03,13.80
2011,08,11,09,04,13.90
2011,08,11,09,05,13.90
2011,08,11,09,06,14.00
2011,08,11,09,07,14.00
2011,08,11,09,08,14.10
2011,08,11,09,09,14.20
2011,08,11,09,10,14.20
2011,08,11,09,11,14.30
2011,08,11,09,12,14.30
2011,08,11,09,13,14.30
2011,08,11,09,14,14.40
2011,08,11,09,15,14.40
2011,08,11,09,16,14.50
2011,08,11,09,17,14.50
2011,08,11,09,18,14.60
2011,08,11,09,19,14.60
2011,08,11,09,20,14.70
2011,08,11,09,21,14.80
2011,08,11,09,22,14.80
2011,08,11,09,23,14.90
2011,08,11,09,24,15.00
2011,08,11,09,25,15.00
2011,08,11,09,26,15.00
2011,08,11,09,27,15.00
2011,08,11,09,28,15.10
2011,08,11,09,29,15.20
2011,08,11,09,30,15.30
2011,08,11,09,31,15.40
2011,08,11,09,32,15.40
2011,08,11,09,33,15.50
2011,08,11,09,34,15.50
2011,08,11,09,35,15.60
2011,08,11,09,36,15.60
2011,08,11,09,37,15.70
2011,08,11,09,38,15.70
2011,08,11,09,39,15.80
2011,08,11,09,40,15.80
2011,08,11,09,41,15.80
2011,08,11,09,42,15.90
2011,08,11,09,43,15.90
2011,08,11,09,44,16.00
2011,08,11,09,45,16.00
2011,08,11,09,46,16.00
2011,08,11,09,47,16.10
2011,08,11,09,48,16.10
2011,08,11,09,49,16.10
2011,08,11,09,50,16.10
2011,08,11,09,51,16.20
2011,08,11,09,52,16.20
2011,08,11,09,53,16.20
2011,08,11,09,54,16.30
2011,08,11,09,55,16.30
2011,08,11,09,56,16.40
2011,08,11,09,57,16.40
2011,08,11,09,58,16.40
2011,08,11,09,59,16.50
2011,08,11,10,00,16.50
2011,08,11,10,01,16.60
2011,08,11,10,02,16.70
2011,08,11,10,03,16.70
2011,08,11,10,04,16.80
2011,08,11,10,05,16.80
2011,08,11,10,06,16.80
2011,08,11,10,07,16.90
2011,08,11,10,08,16.90
2011,08,11,10,09,17.00
2011,08,11,10,10,17.00
2011,08,11,10,11,17.10
2011,08,11,10,12,17.10
2011,08,11,10,13,17.10
2011,08,11,10,14,17.10
2011,08,11,10,15,17.20
2011,08,11,10,16,17.20
2011,08,11,10,17,17.20
2011,08,11,10,18,17.20
2011,08,11,10,19,17.20
2011,08,11,10,20,17.30
2011,08,11,10,21,17.30
2011,08,11,10,22,17.30
2011,08,11,10,23,17.30
2011,08,11,10,24,17.30
2011,08,11,10,25,17.30
2011,08,11,10,26,17.30
2011,08,11,10,27,17.40
2011,08,11,10,28,17.40
2011,08,11,10,29,17.40
2011,08,11,10,30,17.40
2011,08,11,10,31,17.40
2011,08,11,10,32,17.40
2011,08,11,10,33,17.50
2011,08,11,10,34,17.50
2011,08,11,10,35,17.50
2011,08,11,10,36,17.50
2011,08,11,10,37,17.50
2011,08,11,10,38,17.50
2011,08,11,10,39,17.60
2011,08,11,10,40,17.60
2011,08,11,10,41,17.60
2011,08,11,10,42,17.60
2011,08,11,10,43,17.60
2011,08,11,10,44,17.70
2011,08,11,10,45,17.70
2011,08,11,10,46,17.70
2011,08,11,10,47,17.70
2011,08,11,10,48,17.70
2011,08,11,10,49,17.70
2011,08,11,10,50,17.80
2011,08,11,10,51,17.80
2011,08,11,10,52,17.80
2011,08,11,10,53,17.80
2011,08,11,10,54,17.90
2011,08,11,10,55,17.90
2011,08,11,10,56,18.00
2011,08,11,10,57,18.00
2011,08,11,10,58,18.00
2011,08,11,10,59,18.00
2011,08,11,11,00,18.10
2011,08,11,11,01,18.10
2011,08,11,11,02,18.10
2011,08,11,11,03,18.10
2011,08,11,11,04,18.10
2011,08,11,11,05,18.20
2011,08,11,11,06,18.20
2011,08,11,11,07,18.20
2011,08,11,11,08,18.20
2011,08,11,11,09,18.20
2011,08,11,11,10,18.20
2011,08,11,11,11,18.30
2011,08,11,11,12,18.30
2011,08,11,11,13,18.30
2011,08,11,11,14,18.30
2011,08,11,11,15,18.30
2011,08,11,11,16,18.30
2011,08,11,11,17,18.30
2011,08,11,11,18,18.40
2011,08,11,11,19,18.40
2011,08,11,11,20,18.40
2011,08,11,11,21,18.40
2011,08,11,11,22,18.50
2011,08,11,11,23,18.50
2011,08,11,11,24,18.60
2011,08,11,11,25,18.60
2011,08,11,11,26,18.70
2011,08,11,11,27,18.70
2011,08,11,11,28,18.80
2011,08,11,11,29,18.80
2011,08,11,11,30,18.80
2011,08,11,11,31,18.90
2011,08,11,11,32,18.90
2011,08,11,11,33,18.90
2011,08,11,11,34,19.00
2011,08,11,11,35,19.00
2011,08,11,11,36,19.00
2011,08,11,11,37,19.10
2011,08,11,11,38,19.10
2011,08,11,11,39,19.10
2011,08,11,11,40,19.10
2011,08,11,11,41,19.10
2011,08,11,11,42,19.10
2011,08,11,11,43,19.20
2011,08,11,11,44,19.20
2011,08,11,11,45,19.20
2011,08,11,11,46,19.20
2011,08,11,11,47,19.20
2011,08,11,11,48,19.20
2011,08,11,11,49,19.20
2011,08,11,11,50,19.20
2011,08,11,11,51,19.30
2011,08,11,11,52,19.30
2011,08,11,11,53,19.40
2011,08,11,11,54,19.40
2011,08,11,11,55,19.50
2011,08,11,11,56,19.60
2011,08,11,11,57,19.60
2011,08,11,11,58,19.60
2011,08,11,11,59,19.60
2011,08,11,12,00,19.70
2011,08,11,12,01,19.70
2011,08,11,12,02,19.80
2011,08,11,12,03,19.80
2011,08,11,12,04,19.90
2011,08,11,12,05,19.90
2011,08,11,12,06,20.00
2011,08,11,12,07,20.10
2011,08,11,12,08,20.10
2011,08,11,12,09,20.20
2011,08,11,12,10,20.20
2011,08,11,12,11,20.30
2011,08,11,12,12,20.40
2011,08,11,12,13,20.50
2011,08,11,12,14,20.60
2011,08,11,12,15,20.60
2011,08,11,12,16,20.70
2011,08,11,12,17,20.70
2011,08,11,12,18,20.70
2011,08,11,12,19,20.70
2011,08,11,12,20,20.70
2011,08,11,12,21,20.80
2011,08,11,12,22,20.80
2011,08,11,12,23,20.80
2011,08,11,12,24,20.80
2011,08,11,12,25,20.80
2011,08,11,12,26,20.90
2011,08,11,12,27,20.90
2011,08,11,12,28,21.00
2011,08,11,12,29,21.00
2011,08,11,12,30,21.10
2011,08,11,12,31,21.20
2011,08,11,12,32,21.20
2011,08,11,12,33,21.30
2011,08,11,12,34,21.30
2011,08,11,12,35,21.40
2011,08,11,12,36,21.40
2011,08,11,12,37,21.40
2011,08,11,12,38,21.50
2011,08,11,12,39,21.50
2011,08,11,12,40,21.50
2011,08,11,12,41,21.50
2011,08,11,12,42,21.60
2011,08,11,12,43,21.50
2011,08,11,12,44,21.50
2011,08,11,12,45,21.40
2011,08,11,12,46,21.30
2011,08,11,12,47,21.30
2011,08,11,12,48,21.30
2011,08,11,12,49,21.30
2011,08,11,12,50,21.20
2011,08,11,12,51,21.30
2011,08,11,12,52,21.30
2011,08,11,12,53,21.30
2011,08,11,12,54,21.30
2011,08,11,12,55,21.30
2011,08,11,12,56,21.30
2011,08,11,12,57,21.30
2011,08,11,12,58,21.40
2011,08,11,12,59,21.40
2011,08,11,13,00,21.40
2011,08,11,13,01,21.40
2011,08,11,13,02,21.40
2011,08,11,13,03,21.40
2011,08,11,13,04,21.40
2011,08,11,13,05,21.40
2011,08,11,13,06,21.40
2011,08,11,13,07,21.40
2011,08,11,13,08,21.40
2011,08,11,13,09,21.40
2011,08,11,13,10,21.40
2011,08,11,13,11,21.40
2011,08,11,13,12,21.40
2011,08,11,13,13,21.40
2011,08,11,13,14,21.40
2011,08,11,13,15,21.50
2011,08,11,13,16,21.50
2011,08,11,13,17,21.50
2011,08,11,13,18,21.50
2011,08,11,13,19,21.60
2011,08,11,13,20,21.60
2011,08,11,13,21,21.60
2011,08,11,13,22,21.60
2011,08,11,13,23,21.60
2011,08,11,13,24,21.60
2011,08,11,13,25,21.60
2011,08,11,13,26,21.60
2011,08,11,13,27,21.60
2011,08,11,13,28,21.50
2011,08,11,13,29,21.50
2011,08,11,13,30,21.50
2011,08,11,13,31,21.50
2011,08,11,13,32,21.40
2011,08,11,13,33,21.40
2011,08,11,13,34,21.50
2011,08,11,13,35,21.50
2011,08,11,13,36,21.50
2011,08,11,13,37,21.50
2011,08,11,13,38,21.60
2011,08,11,13,39,21.60
2011,08,11,13,40,21.60
2011,08,11,13,41,21.60
2011,08,11,13,42,21.50
2011,08,11,13,43,21.50
2011,08,11,13,44,21.50
2011,08,11,13,45,21.40
2011,08,11,13,46,21.40
2011,08,11,13,47,21.50
2011,08,11,13,48,21.50
2011,08,11,13,49,21.50
2011,08,11,13,50,21.50
2011,08,11,13,51,21.50
2011,08,11,13,52,21.50
2011,08,11,13,53,21.50
2011,08,11,13,54,21.60
2011,08,11,13,55,21.60
2011,08,11,13,56,21.60
2011,08,11,13,57,21.60
2011,08,11,13,58,21.60
2011,08,11,13,59,21.70
2011,08,11,14,00,21.70
2011,08,11,14,01,21.70
2011,08,11,14,02,21.80
2011,08,11,14,03,21.80
2011,08,11,14,04,21.80
2011,08,11,14,05,21.80
2011,08,11,14,06,21.80
2011,08,11,14,07,21.80
2011,08,11,14,08,21.80
2011,08,11,14,09,21.80
2011,08,11,14,10,21.80
2011,08,11,14,11,21.80
2011,08,11,14,12,21.70
2011,08,11,14,13,21.70
2011,08,11,14,14,21.70
2011,08,11,14,15,21.70
2011,08,11,14,16,21.70
2011,08,11,14,17,21.70
2011,08,11,14,18,21.70
2011,08,11,14,19,21.70
2011,08,11,14,20,21.60
2011,08,11,14,21,21.60
2011,08,11,14,22,21.60
2011,08,11,14,23,21.60
2011,08,11,14,24,21.60
2011,08,11,14,25,21.60
2011,08,11,14,26,21.60
2011,08,11,14,27,21.60
2011,08,11,14,28,21.60
2011,08,11,14,29,21.60
2011,08,11,14,30,21.70
2011,08,11,14,31,21.70
2011,08,11,14,32,21.80
2011,08,11,14,33,21.80
2011,08,11,14,34,21.80
2011,08,11,14,35,21.90
2011,08,11,14,36,21.90
2011,08,11,14,37,22.00
2011,08,11,14,38,22.10
2011,08,11,14,39,22.10
2011,08,11,14,40,22.10
2011,08,11,14,41,22.10
2011,08,11,14,42,22.20
2011,08,11,14,43,22.30
2011,08,11,14,44,22.30
2011,08,11,14,45,22.30
2011,08,11,14,46,22.30
2011,08,11,14,47,22.30
2011,08,11,14,48,22.30
2011,08,11,14,49,22.30
2011,08,11,14,50,22.30
2011,08,11,14,51,22.30
2011,08,11,14,52,22.30
2011,08,11,14,53,22.30
2011,08,11,14,54,22.40
2011,08,11,14,55,22.40
2011,08,11,14,56,22.50
2011,08,11,14,57,22.60
2011,08,11,14,58,22.70
2011,08,11,14,59,22.80
2011,08,11,15,00,22.90
2011,08,11,15,01,23.00
2011,08,11,15,02,23.00
2011,08,11,15,03,23.00
2011,08,11,15,04,23.10
2011,08,11,15,05,23.20
2011,08,11,15,06,23.20
2011,08,11,15,07,23.20
2011,08,11,15,08,23.30
2011,08,11,15,09,23.30
2011,08,11,15,10,23.30
2011,08,11,15,11,23.30
2011,08,11,15,12,23.20
2011,08,11,15,13,23.20
2011,08,11,15,14,23.20
2011,08,11,15,15,23.20
2011,08,11,15,16,23.20
2011,08,11,15,17,23.20
2011,08,11,15,18,23.20
2011,08,11,15,19,23.20
2011,08,11,15,20,23.20
2011,08,11,15,21,23.30
2011,08,11,15,22,23.30
2011,08,11,15,23,23.30
2011,08,11,15,24,23.30
2011,08,11,15,25,23.30
2011,08,11,15,26,23.30
2011,08,11,15,27,23.30
2011,08,11,15,28,23.30
2011,08,11,15,29,23.30
2011,08,11,15,30,23.30
2011,08,11,15,31,23.30
2011,08,11,15,32,23.30
2011,08,11,15,33,23.30
2011,08,11,15,34,23.30
2011,08,11,15,35,23.30
2011,08,11,15,36,23.40
2011,08,11,15,37,23.40
2011,08,11,15,38,23.50
2011,08,11,15,39,23.50
2011,08,11,15,40,23.60
2011,08,11,15,41,23.70
2011,08,11,15,42,23.80
2011,08,11,15,43,23.80
2011,08,11,15,44,23.90
2011,08,11,15,45,23.90
2011,08,11,15,46,23.90
2011,08,11,15,47,23.90
2011,08,11,15,48,24.00
2011,08,11,15,49,24.00
2011,08,11,15,50,24.00
2011,08,11,15,51,24.10
2011,08,11,15,52,24.10
2011,08,11,15,53,24.00
2011,08,11,15,54,24.00
2011,08,11,15,55,24.10
2011,08,11,15,56,24.10
2011,08,11,15,57,24.20
2011,08,11,15,58,24.20
2011,08,11,15,59,24.20
2011,08,11,16,00,24.20
2011,08,11,16,01,24.20
2011,08,11,16,02,24.20
2011,08,11,16,03,24.20
2011,08,11,16,04,24.10
2011,08,11,16,05,24.10
2011,08,11,16,06,24.00
2011,08,11,16,07,24.00
2011,08,11,16,08,23.90
2011,08,11,16,09,23.90
2011,08,11,16,10,23.90
2011,08,11,16,11,23.80
2011,08,11,16,12,23.80
2011,08,11,16,13,23.80
2011,08,11,16,14,23.90
2011,08,11,16,15,23.90
2011,08,11,16,16,23.90
2011,08,11,16,17,23.90
2011,08,11,16,18,24.00
2011,08,11,16,19,23.90
2011,08,11,16,20,23.90
2011,08,11,16,21,23.90
2011,08,11,16,22,23.90
2011,08,11,16,23,23.90
2011,08,11,16,24,23.90
2011,08,11,16,25,23.90
2011,08,11,16,26,23.90
2011,08,11,16,27,23.90
2011,08,11,16,28,23.90
2011,08,11,16,29,24.00
2011,08,11,16,30,24.00
2011,08,11,16,31,24.00
2011,08,11,16,32,24.00
2011,08,11,16,33,23.90
2011,08,11,16,34,24.00
2011,08,11,16,35,24.00
2011,08,11,16,36,23.90
2011,08,11,16,37,23.90
2011,08,11,16,38,23.90
2011,08,11,16,39,23.80
2011,08,11,16,40,23.80
2011,08,11,16,41,23.80
2011,08,11,16,42,23.80
2011,08,11,16,43,23.80
2011,08,11,16,44,23.60
2011,08,11,16,45,23.50
2011,08,11,16,46,23.40
2011,08,11,16,47,23.30
2011,08,11,16,48,23.30
2011,08,11,16,49,23.30
2011,08,11,16,50,23.20
2011,08,11,16,51,23.20
2011,08,11,16,52,23.20
2011,08,11,16,53,23.20
2011,08,11,16,54,23.20
2011,08,11,16,55,23.10
2011,08,11,16,56,23.10
2011,08,11,16,57,23.00
2011,08,11,16,58,22.90
2011,08,11,16,59,22.90
2011,08,11,17,00,22.90
2011,08,11,17,01,22.80
2011,08,11,17,02,22.80
2011,08,11,17,03,22.80
2011,08,11,17,04,22.80
2011,08,11,17,05,22.80
2011,08,11,17,06,22.80
2011,08,11,17,07,22.80
2011,08,11,17,08,22.80
2011,08,11,17,09,22.80
2011,08,11,17,10,22.80
2011,08,11,17,11,22.80
2011,08,11,17,12,22.80
2011,08,11,17,13,22.70
2011,08,11,17,14,22.70
2011,08,11,17,15,22.60
2011,08,11,17,16,22.60
2011,08,11,17,17,22.60
2011,08,11,17,18,22.60
2011,08,11,17,19,22.60